Regional Weather Roundup
Issued by NWS Cleveland, OH

Home | Current Version | Previous Version | Text Only | Print | Product List | Glossary On
Versions: 1 2 3 4 5 6 7 8 9 10 11 12 13 14 15 16 17 18 19 20 21 22 23 24 25 26 27 28 29 30 31 32 33 34 35 36 37 38 39 40 41 42 43 44 45 46 47 48 49 50
000
ASUS41 KCLE 030010
RWRCLE
OHIO REGIONAL WEATHER ROUNDUP
NATIONAL WEATHER SERVICE CLEVELAND, OH
800 PM EDT SUN AUG 02 2015

NOTE: "FAIR" INDICATES FEW OR NO CLOUDS BELOW 12,000 FEET WITH NO
SIGNIFICANT WEATHER AND/OR OBSTRUCTIONS TO VISIBILITY.

OHZ001>008-015>018-024>027-034-035-043-044-030100-
   NORTHWEST OHIO

CITY           SKY/WX    TMP DP  RH WIND       PRES   REMARKS
DEFIANCE       PTCLDY    86  63  45 SW13      29.76S
FINDLAY        CLEAR     83  64  52 SW15      29.79F
TOLEDO EXPRESS CLEAR     84  61  45 SW14G21   29.74F
TOLEDO EXEC    CLEAR     86  63  45 SW14G24   29.75S
LIMA           CLEAR     82  63  52 S13G20    29.83F
$$

OHZ009>014-019>023-028>033-038-089-030100-
   NORTHEAST OHIO

CITY           SKY/WX    TMP DP  RH WIND       PRES   REMARKS
CLE-HOPKINS    PTCLDY    84  61  45 SW13G21   29.81S
CLE-LAKEFRONT  CLEAR     86  60  41 S20G29    29.77R
CUY CO. ARPT   PTCLDY    86  63  45 SW18      29.81R
LORAIN-ELYRIA  CLEAR     82  60  47 SW13      29.80S
ASHTABULA      CLEAR     83  63  50 SW14      29.81R
AKRON-CANTON   PTCLDY    81  62  52 SW12      29.85F
WOOSTER        CLEAR     80  62  54 SW12      29.85F
MANSFIELD      CLEAR     81  61  50 S14       29.85F
YOUNGSTOWN     PTCLDY    81  64  56 SW12G20   29.83F
$$

OHZ042-051>053-060>062-070>072-077>081-030100-
  SOUTHWEST OHIO

CITY           SKY/WX    TMP DP  RH WIND       PRES   REMARKS
CINC-COVINGTON PTCLDY    81  62  52 S7        29.90F
CINC-LUNKEN    PTCLDY    80  64  58 S9        29.89F
HAMILTON       PTCLDY    84  60  44 VRB5      29.88F
DAYTON         PTCLDY    82  61  48 S13G22    29.87F
WRIGHT-PAT AFB CLEAR     82  62  49 SW10      29.86F
DAYTON GENERAL CLEAR     82  59  45 SW8       29.87F
WILMINGTON     CLEAR     78  62  57 S9        29.90F
$$

OHZ036-037-039>041-045>050-054>059-063>069-073>076-082>088-030100-
  CENTRAL AND SOUTHEAST OHIO

CITY           SKY/WX    TMP DP  RH WIND       PRES   REMARKS
COLUMBUS       PTCLDY    83  61  47 S12       29.87F
OSU AIRPORT    CLEAR     82  62  50 S13       29.86F
BOLTON FIELD   CLEAR     80  64  57 S7        29.88F
RICKENBACK AFB CLEAR     80  63  55 S9        29.88F
NEWARK         CLEAR     82  62  50 SW12      29.88F
MARION         CLEAR     82  61  48 SW13      29.84F
LANCASTER      CLEAR     81  61  50 SW7       29.90F
ZANESVILLE     CLEAR     81  61  50 SW9       29.90F
NEW PHILLY     CLEAR     79  64  60 S7        29.87F
$$


USA.gov is the U.S. government's official web portal to all federal, state and local government web resources and services.